Voltar ao catálogo

SL-12 DEB

AtivoHEO
NORAD 25804·DEBRIS·🇷🇺 Russia

Lançado Sep 16, 1987 de Baikonur Cosmodrome

Loading…

Próximas Passagens (próximas 24 horas)

TLE

AtualizadoSource: Space-Track

Época: Sep 13, 2026, 21:08 UTC

1 25804U 87079P   26256.88074457  .00026873  00000-0  69866-2 0  9997
2 25804  64.8803 139.4444 3581349  53.0506 334.7740  8.02931660636548

Acompanhe SL-12 DEB em tempo real com AllMySat

Download on the App Store